Buffalo, NY

11:08 AM EST on December 13, 2019 (GMT -0500)
Buffalo Niagara International

Weather History for KBUF - October, 2019

Change the Weather History Date:

Tuesday, October 29, 2019

  Actual Average Record
Temperature  
Mean Temperature 56 °F 47 °F  
Max Temperature 67 °F 54 °F 74 °F (1971)
Min Temperature 45 °F 39 °F 20 °F (1965)
Degree Days  
Heating Degree Days 9 18  
Month to date heating degree days 362 404  
Since 1 July heating degree days 407 566  
Cooling Degree Days 0 0  
Month to date cooling degree days 7 0  
Year to date cooling degree days 604 540  
Growing Degree Days 6 (Base 50)    
Moisture  
Dew Point 48 °F    
Average Humidity 75    
Maximum Humidity 93    
Minimum Humidity 56    
Precipitation  
Precipitation 0.00 in 0.11 in 1.42 in (2012)
Month to date precipitation 4.31 3.30  
Year to date precipitation 38.96 32.36  
Snow  
Snow 0.00 in 0.10 in 0.70 in (1928)
Month to date snowfall 0.0 0.8  
Since 1 July snowfall 0.0 0.8  
Since 1 September snowfall 0.0 0.8  
Snow Depth 0.00 in    
Sea Level Pressure  
Sea Level Pressure 30.12 in    
Wind  
Wind Speed 9 mph (SSW)    
Max Wind Speed 21 mph    
Max Gust Speed 25 mph    
Visibility 10 miles    
Events      
T = Trace of Precipitation, MM = Missing Value Source: NWS Daily Summary

Daily Weather History Graph

Daily Weather History Graph

Search for Another Location

Airport or City:

Astronomy

Oct. 29, 2019 Rise Set
Actual Time 7:45 AM EDT 6:11 PM EDT
Civil Twilight 7:15 AM EDT 6:40 PM EDT
Nautical Twilight 6:42 AM EDT 7:13 PM EDT
Astronomical Twilight 6:09 AM EDT 7:46 PM EDT
Moon 9:18 AM EDT (10/29) 7:32 PM EDT (10/29)
Length of Visible Light 11h 24m
Length of Day
10h 26m
Waxing Crescent, 3% of the Moon is Illuminated
Oct 29
Waxing Crescent
Nov 4
First Quarter
Nov 12
Full
Nov 19
Last Quarter
Nov 26
New

Hourly Weather History & Observations

Time (EDT) Temp. Windchill Dew Point Humidity Pressure Visibility Wind Dir Wind Speed Gust Speed Precip Events Conditions
12:54 AM 46.0 °F 43.9 °F 42.1 °F 86% 30.08 in 10.0 mi SSE 4.6 mph - N/A   Clear
1:54 AM 45.0 °F 43.5 °F 42.1 °F 90% 30.08 in 10.0 mi SE 3.5 mph - N/A   Clear
2:54 AM 46.9 °F - 41.0 °F 80% 30.07 in 10.0 mi SE 4.6 mph - N/A   Clear
4:54 AM 46.9 °F - 42.1 °F 83% 30.05 in 10.0 mi South 5.8 mph - N/A   Partly Cloudy
5:54 AM 46.9 °F - 42.1 °F 83% 30.06 in 10.0 mi SSE 4.6 mph - N/A   Partly Cloudy
6:54 AM 48.0 °F - 44.1 °F 86% 30.06 in 10.0 mi South 3.5 mph - N/A   Scattered Clouds
7:54 AM 48.9 °F - 45.0 °F 86% 30.08 in 10.0 mi South 6.9 mph - N/A   Mostly Cloudy
8:54 AM 51.1 °F - 46.9 °F 86% 30.09 in 10.0 mi South 6.9 mph - N/A   Mostly Cloudy
9:54 AM 57.9 °F - 48.9 °F 72% 30.10 in 10.0 mi SSW 12.7 mph - N/A   Scattered Clouds
10:54 AM 63.0 °F - 50.0 °F 63% 30.10 in 10.0 mi SSW 18.4 mph 25.3 mph N/A   Partly Cloudy
11:54 AM 66.0 °F - 51.1 °F 59% 30.10 in 10.0 mi SW 12.7 mph - N/A   Scattered Clouds
12:54 PM 66.0 °F - 50.0 °F 56% 30.09 in 10.0 mi SW 12.7 mph 21.9 mph N/A   Mostly Cloudy
1:54 PM 64.9 °F - 51.1 °F 61% 30.09 in 10.0 mi WSW 15.0 mph - N/A   Mostly Cloudy
2:54 PM 62.1 °F - 50.0 °F 65% 30.11 in 10.0 mi WSW 16.1 mph - N/A   Mostly Cloudy
3:54 PM 60.1 °F - 52.0 °F 75% 30.12 in 10.0 mi SW 12.7 mph - N/A   Scattered Clouds
4:54 PM 57.9 °F - 52.0 °F 81% 30.13 in 10.0 mi SW 12.7 mph - N/A   Mostly Cloudy
5:54 PM 55.9 °F - 51.1 °F 84% 30.13 in 10.0 mi SW 12.7 mph - N/A   Mostly Cloudy
6:54 PM 55.0 °F - 51.1 °F 86% 30.16 in 10.0 mi SW 10.4 mph - N/A   Mostly Cloudy
7:54 PM 55.0 °F - 51.1 °F 86% 30.18 in 10.0 mi SW 11.5 mph - N/A   Mostly Cloudy
8:54 PM 55.0 °F - 52.0 °F 89% 30.19 in 10.0 mi SW 9.2 mph - N/A   Overcast
9:54 PM 54.0 °F - 51.1 °F 90% 30.19 in 10.0 mi SSW 9.2 mph - N/A   Overcast
10:54 PM 54.0 °F - 50.0 °F 86% 30.21 in 10.0 mi SSW 8.1 mph - N/A   Overcast
11:54 PM 54.0 °F - 50.0 °F 86% 30.21 in 10.0 mi SSW 5.8 mph - N/A   Overcast